Location: Most
(50.5133°N, 13.6207°E)
Time: 14:17:39
(UTC+01:00)

UNHA 3 R/B - Pass Details

Date: 24 September 2020
Orbit: 479 x 556 km, 97.4° (Epoch: 27 October)

Event Time Altitude Azimuth Distance (km) Brightness Sun altitude
Rises 04:51:51 0° 20° (NNE) 2,624 9.5 -19.9°
Reaches altitude 10° 04:54:03 10° 29° (NNE) 1,746 8.6 -19.5°
Maximum altitude 04:57:33 36° 97° (E) 836 6.7 -19.0°
Drops below altitude 10° 05:01:07 10° 166° (SSE) 1,774 7.8 -18.5°
Enters shadow 05:02:51 - 173° (S) 2,462 8.5 -18.3°
